Back to catalog

COSMOS 1448

AliveMilitaryPO
NORAD 13949·PAYLOAD·🇷🇺 Russia

Launched Mar 30, 1983 from Plesetsk Cosmodrome

Loading…

Next Passes (next 24 hours)

TLE

FreshSource: Space-Track

Epoch: Sep 14, 2026, 18:18 UTC

1 13949U 83023A   26257.76272466  .00000055  00000-0  41286-4 0  9999
2 13949  82.9610   7.6307 0028637 232.0168 291.8914 13.76144084182176

Track COSMOS 1448 in real time with AllMySat

Download on the App Store